Location: ??
(35.5653°N, 139.6194°E)
Time: 07:29:37
(UTC+00:00)

USA 116 - Pass Details

Date: 20 November 2019
Orbit: 405 x 834 km, 97.9° (Epoch: 18 November)

Event Time Altitude Azimuth Distance (km) Brightness Sun altitude
Rises 20:47:00 0° 187° (S) 2,345 7.1 -7.5°
Reaches altitude 10° 20:49:03 10° 197° (SSW) 1,516 6.0 -7.1°
Maximum altitude 20:51:58 32° 263° (W) 800 4.1 -6.6°
Drops below altitude 10° 20:55:08 10° 328° (NNW) 1,656 5.7 -5.9°
Sets 20:57:28 0° 338° (NNW) 2,607 6.8 -5.5°
